Weather History for Washington, MO

Change the Weather History Date:

Tuesday, November 13, 2012

  Actual Average (KSTL) Record (KSTL)
Temperature  
Mean Temperature 36 °F 48 °F  
Max Temperature 50 °F 57 °F 82 °F (1955)
Min Temperature 23 °F 39 °F 10 °F (1986)
Degree Days  
Heating Degree Days 28 17  
Month to date heating degree days 188  
Since 1 July heating degree days 464  
Cooling Degree Days 0 0  
Month to date cooling degree days 0  
Year to date cooling degree days 1642  
Moisture  
Dew Point 24 °F    
Average Humidity 66    
Maximum Humidity 100    
Minimum Humidity 26    
Precipitation  
Precipitation 0.00 in 0.14 in 1.15 in (1972)
Month to date precipitation 1.62  
Year to date precipitation 35.83  
Snow  
Snow - 0.00 in 2.30 in (1997)
Month to date snowfall 0.1  
Since 1 July snowfall 0.1  
Since 1 September snowfall 0.1  
Snow Depth -    
Sea Level Pressure  
Sea Level Pressure 30.47 in    
Wind  
Wind Speed 1 mph ()    
Max Wind Speed 9 mph    
Max Gust Speed -    
Visibility 10.0 miles    
Events      
T = Trace of Precipitation, MM = Missing Value Source: Averaged Metar Reports

Daily Weather History Graph

Daily Weather History Graph

Search for Another Location

Airport:

Trip Planner

Search our weather history database for the weather conditions in past years. The results will help you decide how hot, cold, wet, or windy it might be!

Date:

Astronomy

Nov. 13, 2012 Rise Set
Actual Time 6:44 AM CST 4:51 PM CST
Civil Twilight 6:16 AM CST 5:20 PM CST
Nautical Twilight 5:44 AM CST 5:52 PM CST
Astronomical Twilight 5:12 AM CST 6:23 PM CST
Moon 6:22 AM CST (11/13) 4:45 PM CST (11/13)
Length of Visible Light 11h 04m
Length of Day
10h 07m
Waning Crescent, 0% of the Moon is Illuminated
Nov 13
Waning Crescent
Nov 13
New
Nov 20
First Quarter
Nov 28
Full
Dec 6
Last Quarter

Hourly Weather History & Observations

Time (CST) Temp. Windchill Dew Point Humidity Pressure Visibility Wind Dir Wind Speed Gust Speed Precip Events Conditions
12:15 AM 28.4 °F - 26.6 °F 93% 30.45 in 10.0 mi Calm Calm - N/A   Clear
12:35 AM 26.6 °F - 24.8 °F 93% 30.45 in 10.0 mi Calm Calm - N/A   Clear
12:55 AM 26.6 °F - 24.8 °F 93% 30.45 in 10.0 mi Calm Calm - N/A   Clear
1:15 AM 26.6 °F - 24.8 °F 93% 30.45 in 10.0 mi Calm Calm - N/A   Clear
1:35 AM 26.6 °F - 24.8 °F 93% 30.46 in 10.0 mi Calm Calm - N/A   Clear
1:55 AM 26.6 °F - 24.8 °F 93% 30.47 in 10.0 mi Calm Calm - N/A   Clear
2:15 AM 26.6 °F - 24.8 °F 93% 30.47 in 10.0 mi Calm Calm - N/A   Clear
2:35 AM 26.6 °F - 24.8 °F 93% 30.47 in 10.0 mi Calm Calm - N/A   Clear
2:55 AM 24.8 °F - 24.8 °F 100% 30.47 in 10.0 mi Calm Calm - N/A   Clear
3:15 AM 26.6 °F - 24.8 °F 93% 30.47 in 10.0 mi Calm Calm - N/A   Clear
3:35 AM 24.8 °F - 23.0 °F 93% 30.47 in 10.0 mi Calm Calm - N/A   Clear
3:55 AM 24.8 °F - 24.8 °F 100% 30.47 in 10.0 mi Calm Calm - N/A   Clear
4:15 AM 24.8 °F - 24.8 °F 100% 30.47 in 10.0 mi Calm Calm - N/A   Clear
4:35 AM 24.8 °F - 24.8 °F 100% 30.48 in 10.0 mi Calm Calm - N/A   Clear
4:55 AM 24.8 °F - 23.0 °F 93% 30.49 in 10.0 mi Calm Calm - N/A   Clear
5:15 AM 24.8 °F - 23.0 °F 93% 30.50 in 10.0 mi Calm Calm - N/A   Clear
5:35 AM 24.8 °F - 23.0 °F 93% 30.50 in 10.0 mi Calm Calm - N/A   Clear
5:55 AM 23.0 °F - 23.0 °F 100% 30.51 in 10.0 mi Calm Calm - N/A   Clear
6:15 AM 24.8 °F - 23.0 °F 93% 30.51 in 10.0 mi Calm Calm - N/A   Clear
6:35 AM 23.0 °F - 23.0 °F 100% 30.52 in 10.0 mi Calm Calm - N/A   Clear
6:55 AM 23.0 °F - 23.0 °F 100% 30.52 in 10.0 mi Calm Calm - N/A   Clear
7:15 AM 24.8 °F - 23.0 °F 93% 30.53 in 10.0 mi Calm Calm - N/A   Clear
7:35 AM 24.8 °F - 23.0 °F 93% 30.53 in 10.0 mi Calm Calm - N/A   Clear
7:55 AM 26.6 °F - 24.8 °F 93% 30.53 in 10.0 mi Calm Calm - N/A   Clear
8:15 AM 28.4 °F - 26.6 °F 93% 30.53 in 10.0 mi Calm Calm - N/A   Clear
8:35 AM 30.2 °F - 26.6 °F 86% 30.54 in 10.0 mi Calm Calm - N/A   Clear
8:55 AM 32.0 °F - 28.4 °F 87% 30.54 in 10.0 mi Calm Calm - N/A   Clear
9:15 AM 32.0 °F - 28.4 °F 87% 30.53 in 10.0 mi Calm Calm - N/A   Clear
9:35 AM 35.6 °F - 28.4 °F 75% 30.53 in 10.0 mi Calm Calm - N/A   Clear
9:55 AM 37.4 °F 32.8 °F 28.4 °F 70% 30.53 in 10.0 mi South 5.8 mph - N/A   Clear
10:15 AM 39.2 °F 34.2 °F 26.6 °F 61% 30.53 in 10.0 mi SSE 6.9 mph - N/A   Clear
10:35 AM 39.2 °F - 28.4 °F 65% 30.53 in 10.0 mi Calm Calm - N/A   Clear
10:55 AM 41.0 °F - 28.4 °F 61% 30.52 in 10.0 mi Calm Calm - N/A   Clear
11:15 AM 42.8 °F - 26.6 °F 53% 30.51 in 10.0 mi Calm Calm - N/A   Clear
11:35 AM 44.6 °F 43.1 °F 24.8 °F 46% 30.50 in 10.0 mi SSE 3.5 mph - N/A   Clear
11:55 AM 44.6 °F - 24.8 °F 46% 30.49 in 10.0 mi Calm Calm - N/A   Clear
12:15 PM 46.4 °F - 24.8 °F 43% 30.48 in 10.0 mi Calm Calm - N/A   Clear
12:55 PM 46.4 °F - 23.0 °F 40% 30.46 in 10.0 mi Calm Calm - N/A   Clear
1:15 PM 48.2 °F - 23.0 °F 37% 30.46 in 10.0 mi Calm Calm - N/A   Clear
1:35 PM 48.2 °F - 23.0 °F 37% 30.45 in 10.0 mi Calm Calm - N/A   Clear
1:55 PM 48.2 °F - 17.6 °F 30% 30.44 in 9.0 mi Calm Calm - N/A   Clear
2:15 PM 48.2 °F - 19.4 °F 32% 30.44 in 10.0 mi Calm Calm - N/A   Clear
2:35 PM 48.2 °F - 15.8 °F 27% 30.43 in 10.0 mi Calm Calm - N/A   Clear
2:55 PM 48.2 °F - 17.6 °F 30% 30.43 in 10.0 mi Calm Calm - N/A   Clear
3:15 PM 50.0 °F - 15.8 °F 26% 30.43 in 10.0 mi Calm Calm - N/A   Clear
3:35 PM 50.0 °F - 15.8 °F 26% 30.43 in 10.0 mi Calm Calm - N/A   Clear
3:55 PM 50.0 °F - 19.4 °F 30% 30.43 in 10.0 mi Calm Calm - N/A   Clear
4:15 PM 48.2 °F - 19.4 °F 32% 30.43 in 10.0 mi Calm Calm - N/A   Clear
4:35 PM 46.4 °F - 21.2 °F 37% 30.43 in 10.0 mi Calm Calm - N/A   Clear
4:55 PM 46.4 °F - 19.4 °F 34% 30.42 in 10.0 mi Calm Calm - N/A   Clear
5:15 PM 46.4 °F - 19.4 °F 34% 30.42 in 10.0 mi Calm Calm - N/A   Clear
5:35 PM 46.4 °F - 19.4 °F 34% 30.42 in 10.0 mi Calm Calm - N/A   Clear
5:55 PM 46.4 °F - 19.4 °F 34% 30.42 in 10.0 mi Calm Calm - N/A   Clear
6:15 PM 44.6 °F 42.2 °F 19.4 °F 37% 30.42 in 10.0 mi East 4.6 mph - N/A   Clear
6:55 PM 44.6 °F 39.7 °F 23.0 °F 43% 30.43 in 10.0 mi ESE 9.2 mph - N/A   Clear
7:15 PM 41.0 °F 37.1 °F 24.8 °F 53% 30.43 in 10.0 mi ESE 5.8 mph - N/A   Clear
7:35 PM 41.0 °F - 23.0 °F 49% 30.43 in 10.0 mi Calm Calm - N/A   Clear
7:55 PM 41.0 °F - 24.8 °F 53% 30.44 in 10.0 mi Calm Calm - N/A   Clear
8:15 PM 39.2 °F 35.0 °F 23.0 °F 52% 30.45 in 10.0 mi SE 5.8 mph - N/A   Clear
8:35 PM 41.0 °F - 24.8 °F 53% 30.46 in 10.0 mi Calm Calm - N/A   Clear
8:55 PM 39.2 °F 34.2 °F 24.8 °F 56% 30.46 in 10.0 mi SE 6.9 mph - N/A   Clear
9:15 PM 37.4 °F - 26.6 °F 65% 30.47 in 10.0 mi Calm Calm - N/A   Clear
9:35 PM 37.4 °F - 24.8 °F 60% 30.46 in 10.0 mi Calm Calm - N/A   Clear
9:55 PM 39.2 °F 37.0 °F 24.8 °F 56% 30.46 in 10.0 mi ESE 3.5 mph - N/A   Clear
10:15 PM 39.2 °F 35.0 °F 24.8 °F 56% 30.46 in 10.0 mi ESE 5.8 mph - N/A   Clear
10:35 PM 39.2 °F 35.0 °F 24.8 °F 56% 30.46 in 10.0 mi SE 5.8 mph - N/A   Clear
10:55 PM 37.4 °F - 24.8 °F 60% 30.46 in 10.0 mi Calm Calm - N/A   Clear
11:15 PM 37.4 °F 32.8 °F 24.8 °F 60% 30.45 in 10.0 mi ESE 5.8 mph - N/A   Clear
11:35 PM 39.2 °F 34.2 °F 24.8 °F 56% 30.45 in 10.0 mi SE 6.9 mph - N/A   Clear
11:55 PM 37.4 °F - 24.8 °F 60% 30.46 in 10.0 mi Calm Calm - N/A   Clear